WetterOnline ( https://www.wetteronline.de )

Wetter aktuell Mittenwald

Aktuelles Wetter: Garmisch-Partenkirchen (719m)

6-stündlich | Neueste Meldungen
Ortszeit Temperatur Wetter
Do, 20.02. 13:00 5.6° C bewölkt
Do, 20.02. 7:00 -1.5° C bedeckt
Do, 20.02. 1:00 -1.9° C bedeckt
Mi, 19.02. 19:00 0.7° C leichter Schneefall
Mi, 19.02. 13:00 3.1° C leichter Regen
Mi, 19.02. 7:00 -2.4° C wolkig
Mi, 19.02. 1:00 -1.8° C bedeckt
Di, 18.02. 19:00 2.1° C wolkenlos
Ortszeit Temperatur Wetter
Do, 20.02. 15:10 8.7° C wolkig
Do, 20.02. 15:00 8.6° C wolkig
Do, 20.02. 14:50 8.6° C wolkig
Do, 20.02. 14:40 8.3° C bewölkt
Do, 20.02. 14:30 7.6° C bewölkt
Do, 20.02. 14:20 7.6° C bewölkt
Do, 20.02. 14:00 6.9° C wolkig
Do, 20.02. 13:30 6.1° C bedeckt
Do, 20.02. 13:00 5.6° C bewölkt
Do, 20.02. 12:30 5.5° C bedeckt
Do, 20.02. 12:00 5.0° C bedeckt
Ortszeit Relative Feuchte Sichtweite
Do, 20.02. 13:00 68% 60 km
Do, 20.02. 7:00 96% 55 km
Do, 20.02. 1:00 97% 30 km
Mi, 19.02. 19:00 88% 10 km
Mi, 19.02. 13:00 89% 22 km
Mi, 19.02. 7:00 88% >70 km
Mi, 19.02. 1:00 84% 65 km
Di, 18.02. 19:00 69% 30 km
Ortszeit Relative Feuchte Sichtweite
Do, 20.02. 15:10 49% -
Do, 20.02. 15:00 54% 60 km
Do, 20.02. 14:50 54% -
Do, 20.02. 14:40 56% -
Do, 20.02. 14:30 60% >70 km
Do, 20.02. 14:20 60% -
Do, 20.02. 14:00 64% >70 km
Do, 20.02. 13:30 65% >70 km
Do, 20.02. 13:00 68% 60 km
Do, 20.02. 12:30 65% >70 km
Do, 20.02. 12:00 67% >70 km
Ortszeit Niederschlagsmenge Niederschlagsart
Do, 20.02. 13:00 0.0 l/m2 in 6 Std. -
Do, 20.02. 7:00 2 l/m2 in 12 Std. -
Do, 20.02. 1:00 2 l/m2 in 6 Std. Schnee
Mi, 19.02. 19:00 2 l/m2 in 12 Std. Schnee, Regen
Mi, 19.02. 13:00 0.5 l/m2 in 6 Std. Regen
Mi, 19.02. 7:00 0.0 l/m2 in 12 Std. -
Mi, 19.02. 1:00 0.0 l/m2 in 6 Std. -
Di, 18.02. 19:00 0.0 l/m2 in 12 Std. -
Ortszeit Niederschlagsmenge Niederschlagsart
Do, 20.02. 15:10 keine Meldung -
Do, 20.02. 15:00 0.0 l/m2 in 1 Std. -
Do, 20.02. 14:50 keine Meldung -
Do, 20.02. 14:40 keine Meldung -
Do, 20.02. 14:30 0.0 l/m2 in 1 Std. -
Do, 20.02. 14:20 keine Meldung -
Do, 20.02. 14:00 0.0 l/m2 in 1 Std. -
Do, 20.02. 13:30 0.0 l/m2 in 1 Std. -
Do, 20.02. 13:00 0.0 l/m2 in 1 Std. -
Do, 20.02. 12:30 0.0 l/m2 in 1 Std. -
Do, 20.02. 12:00 0.0 l/m2 in 1 Std. -
Ortszeit Stärke Spitze Richtung
km/h Bft. km/h Grad Sektor
Do, 20.02. 13:00 4 1 7 250° W
Do, 20.02. 7:00 2 1 6 280° W
Do, 20.02. 1:00 2 1 17 210° SW
Mi, 19.02. 19:00 4 1 25 260° W
Mi, 19.02. 13:00 6 1 24 190° S
Mi, 19.02. 7:00 6 1 9 230° SW
Mi, 19.02. 1:00 6 1 9 200° S
Di, 18.02. 19:00 4 1 32 230° SW
Ortszeit Stärke Spitze Richtung
km/h Bft. km/h Grad Sektor
Do, 20.02. 15:10 4 1 - 200° S
Do, 20.02. 15:00 4 1 11 170° S
Do, 20.02. 14:50 4 1 - 170° S
Do, 20.02. 14:40 4 1 - 210° SW
Do, 20.02. 14:30 6 1 11 200° S
Do, 20.02. 14:20 6 1 - 200° S
Do, 20.02. 14:00 6 1 9 250° W
Do, 20.02. 13:30 4 1 7 260° W
Do, 20.02. 13:00 4 1 7 250° W
Do, 20.02. 12:30 0 0 4 - -
Do, 20.02. 12:00 0 0 7 - -
Ortszeit Untergrenze Bedeckung Gattung
total tief tief mittel hoch
Do, 20.02. 13:00 2100 m 7/8 7/8 - - -
Do, 20.02. 7:00 1500 m 8/8 8/8 - - -
Do, 20.02. 1:00 1350 m 8/8 8/8 - - -
Mi, 19.02. 19:00 270 m 8/8 8/8 - - -
Mi, 19.02. 13:00 660 m 7/8 7/8 - - -
Mi, 19.02. 7:00 2100 m 7/8 4/8 - - -
Mi, 19.02. 1:00 5100 m 8/8 8/8 - - -
Di, 18.02. 19:00 - 0/8 0/8 - - -
Ortszeit Bedeckungsgrad in Achtel und Wolkenuntergrenze
Do, 20.02. 15:10 8(8100m)
Do, 20.02. 15:00 2(6300m) 8(8100m)
Do, 20.02. 14:50 2(6300m) 8(8100m)
Do, 20.02. 14:40 4(6600m) 7(7800m) 8(8100m)
Do, 20.02. 14:30 3(3600m) 5(6600m) 8(7500m)
Do, 20.02. 14:20 3(3600m) 5(6600m) 8(7500m)
Do, 20.02. 14:00 3(2100m) 8(3300m) 8(6300m)
Do, 20.02. 13:30 8(2400m) 8(2700m) 8(3300m)
Do, 20.02. 13:00 7(2100m) 7(3000m) 7(3000m)
Do, 20.02. 12:30 4(1800m) 7(2100m) 8(2700m)
Do, 20.02. 12:00 8(1500m) 8(2100m) 8(2700m)
Ortszeit Luftdruck NN (hPa) Tendenz (hPa in 3 Std.)
Do, 20.02. 13:00 1024 - 1,6
Do, 20.02. 7:00 1028 - 0,6
Do, 20.02. 1:00 1030 - 0,7
Mi, 19.02. 19:00 1028 + 1,4
Mi, 19.02. 13:00 1022 + 0,7
Mi, 19.02. 7:00 1025 - 2,1
Mi, 19.02. 1:00 1029 - 1,8
Di, 18.02. 19:00 1029 + 1,0
Ortszeit Luftdruck NN (hPa) Tendenz (hPa in 3 Std.)
Do, 20.02. 15:10 1020 keine Meldung
Do, 20.02. 15:00 1020 - 2,8
Do, 20.02. 14:50 1020 keine Meldung
Do, 20.02. 14:40 1021 keine Meldung
Do, 20.02. 14:30 1021 - 2,6
Do, 20.02. 14:20 1021 keine Meldung
Do, 20.02. 14:00 1022 - 2,3
Do, 20.02. 13:30 1023 - 2,0
Do, 20.02. 13:00 1024 - 1,6
Do, 20.02. 12:30 1024 - 1,1
Do, 20.02. 12:00 1025 - 0,9
Ortszeit Schneehöhe (cm)
Do, 20.02. 13:00 0
Do, 20.02. 7:00 3
Do, 20.02. 1:00 4
Mi, 19.02. 19:00 0
Mi, 19.02. 13:00 0
Mi, 19.02. 7:00 0
Mi, 19.02. 1:00 0
Di, 18.02. 19:00 0
Ortszeit Schneehöhe (cm)
Do, 20.02. 15:10 0
Do, 20.02. 15:00 0
Do, 20.02. 14:50 0
Do, 20.02. 14:40 0
Do, 20.02. 14:30 0
Do, 20.02. 14:20 0
Do, 20.02. 14:00 0
Do, 20.02. 13:30 0
Do, 20.02. 13:00 0
Do, 20.02. 12:30 0
Do, 20.02. 12:00 0
Link zu dieser Seite / Seite empfehlen

Das Wetter in ...